Regional Weather Roundup
Issued by NWS

Home | Current Version | Previous Version | Text Only | Print | Product List | Glossary Off
Versions: 1 2 3 4 5 6 7 8 9 10 11 12 13 14 15 16 17 18 19 20 21 22 23 24 25 26 27

000
ASUS45 KBOU 200307
RWRCO

WEATHER ROUNDUP FOR COLORADO
NATIONAL WEATHER SERVICE DENVER/BOULDER CO
900 PM MDT TUE SEP 19 2017

NOTE: "FAIR" INDICATES FEW OR NO CLOUDS BELOW 12000 FEET WITH NO
SIGNIFICANT WEATHER AND/OR OBSTRUCTIONS TO VISIBILITY.

COZ001>005-013-030-031-200400-
...NORTHWEST COLORADO...

CITY           SKY/WX    TMP DP  RH WIND       PRES   REMARKS
CRAIG          LGT RAIN  41  37  86 E8        30.02F
HAYDEN         RAIN      39  36  89 NE9       30.04S
MEEKER         MOCLDY    44  34  67 N10       29.99R
RABBIT EARS PA LGT SNOW  30  30 100 W7G18     30.09R VSB 1   WCI  23
STEAMBOAT SPGS CLOUDY    38  35  89 NW10      30.06R
WALDEN         CLOUDY    34  30  86 N12       30.03R WCI  25
$$

COZ006>008-011-200400-
...WEST CENTRAL VALLEYS...

CITY           SKY/WX    TMP DP  RH WIND       PRES   REMARKS
GRAND JUNCTION MOCLDY    73  33  23 NW7       29.76R
MONTROSE       FAIR      65  27  23 S5        29.89R
EAGLE          CLOUDY    65  28  24 SW9       29.88R
RIFLE          CLOUDY    59  36  42 W6        29.85R
DELTA          MOCLDY    74  25  16 S6        29.83R
NUCLA          FAIR      68  25  19 SW10      29.92S
$$

COZ017>023-064>068-200400-
...SOUTHWEST COLORADO...

CITY           SKY/WX    TMP DP  RH WIND       PRES   REMARKS
DURANGO        FAIR      62  22  21 W7        29.99R
CORTEZ         FAIR      57  31  37 VRB3      29.94R
PAGOSA SPRINGS FAIR      52  26  36 CALM      30.06R
TELLURIDE      FAIR      56  20  24 CALM      30.14S
WOLF CREEK PAS FAIR      41  18  38 S25G38    30.30F
$$

COZ009-010-012-014-032>034-037-058>063-200400-
...CENTRAL COLORADO...

CITY           SKY/WX    TMP DP  RH WIND       PRES   REMARKS
ASPEN          FAIR      63  21  20 SW14G21   29.94R
BUENA VISTA    FAIR      62  15  16 W22G32    29.94R
COPPER MTN     FAIR      45  14  29 W17G30    30.20R
BERTHOUD PASS  FAIR      36  30  80 W24G39    30.19S
COTTONWOOD PAS FAIR      55  10  16 W17G35    30.06S
GUNNISON       FAIR      61  23  23 W10       29.99R
KREMMLING      FAIR      50  32  50 NE5       29.98R
LEADVILLE      FAIR      46  17  31 S9        30.06R
MONARCH PASS   FAIR      43  16  33 W46G53    30.29S
SALIDA         FAIR      65  16  15 SW5       30.02R
SUNLIGHT       CLOUDY    45  25  45 SW16G23   30.13R
WILKERSON PASS FAIR      45  16  31 SW21G30   30.16S
$$

COZ069>075-200400-
...SAN LUIS VALLEY/SANGRE DE CRISTO MOUNTAINS...

CITY           SKY/WX    TMP DP  RH WIND       PRES   REMARKS
ALAMOSA        FAIR      50  24  36 S10       30.00R
DEL NORTE      FAIR      58  20  22 W6        30.01R
LA VETA PASS   FAIR      52  18  25 S30G48    30.22R
SAGUACHE       NOT AVBL
$$

COZ035-036-038>040-200400-
...NORTHERN COLORADO FRONT RANGE...

CITY           SKY/WX    TMP DP  RH WIND       PRES   REMARKS
DENVER INTL AP FAIR      50  29  44 SE7       29.84R
DMNS CITY PARK   N/A     53  32  44 E12G20    29.85R
AURORA         PTCLDY    50  30  46 SE8       29.88R
FRONT RANGE AP NOT AVBL
ERIE MUNI ARPT FAIR      57  30  36 SE14G20   29.87R
BOULDER MUN AP FAIR      57  32  38 SE8       29.82R
CENTENNIAL     FAIR      51  32  48 E9        29.88R
BROOMFIELD     PTCLDY    55  30  38 SE12      29.84R
FORT COLLINS   FAIR      55  35  47 SW12      29.77R
LONGMONT       FAIR      59  32  36 SE12      29.82R
$$

COZ041-046-047-076>085-087-088-200400-
...PIKES PEAK/PALMER DIVIDE AND SOUTHERN FOOTHILLS...

CITY           SKY/WX    TMP DP  RH WIND       PRES   REMARKS
COLO. SPRINGS  FAIR      58  34  40 N25G35    29.84R
A. F. ACADEMY  FAIR      56  32  40 N18       29.88R
SCHRIEVER AFB  FAIR      55  33  42 N18G29    29.85R
CHEYENNE MTN   NOT AVBL
ELLICOTT         N/A    N/A N/A N/A NE22G31   29.83R
FALCON         FAIR      51  32  47 N21G29    29.90R
FORT CARSON    FAIR      66  30  26 N17       29.82R
LIMON          FAIR      53  32  44 N23G35    29.81R
MONUMENT HILL  FAIR      45  32  61 N5        29.95R
CANON CITY     CLEAR     73  25  16 S5        29.77R
WALSENBURG     FAIR      73  19  13 SW28G36   29.85R
TRINIDAD       FAIR      72  21  14 SW20      29.83R
$$

COZ042>045-048>051-090-091-200400-
...NORTHEAST COLORADO...

CITY           SKY/WX    TMP DP  RH WIND       PRES   REMARKS
GREELEY ARPT   FAIR      55  32  41 N22G29    29.77R
AKRON          FAIR      52  29  41 N30G37    29.80R
BURLINGTON     FAIR      63  38  39 N23G38    29.75R
WRAY           FAIR      61  32  33 N28G37    29.74R
YUMA           FAIR      54  18  24 N23G32    29.78R
STERLING       FAIR      54  32  43 N32G41    29.76R
HOLYOKE        FAIR      59  34  38 N24G32    29.76R
FORT MORGAN    FAIR      52  28  39 N25G33    29.79R
$$

COZ086-089-092>099-200400-
...SOUTHEAST COLORADO...

CITY           SKY/WX    TMP DP  RH WIND       PRES   REMARKS
PUEBLO         FAIR      69  22  16 W5        29.71R
LA JUNTA       FAIR      77  22  13 SE7       29.67R
LAMAR          FAIR      74  28  18 S14       29.62R
SPRINGFIELD    NOT AVBL
$$




USA.gov is the U.S. government's official web portal to all federal, state and local government web resources and services.